| time (UTC) | temp F | wind direction | speed MPH | gust MPH | rain 1hr in | rain 24hr in | rain mn in | humidity % | barometer mb |
| 20260831161211 | 81 | 325 | 11.0 | 18.0 | 0.00 | 0.00 | 0.00 | 46 | 1013.1 |
| 20260831160719 | 82 | 316 | 11.0 | 19.0 | 0.00 | 0.00 | 0.00 | 45 | 1013.1 |
| 20260831155747 | 82 | 340 | 12.0 | 19.0 | 0.00 | 0.00 | 0.00 | 45 | 1013.1 |
| 20260831155243 | 83 | 316 | 11.0 | 17.0 | 0.00 | 0.00 | 0.00 | 44 | 1013.1 |
| 20260831154715 | 83 | 32 | 11.0 | 18.0 | 0.00 | 0.00 | 0.00 | 44 | 1013.2 |
| 20260831153216 | 83 | 331 | 12.0 | 21.0 | 0.00 | 0.00 | 0.00 | 44 | 1013.2 |
| 20260831152708 | 83 | 346 | 11.0 | 19.0 | 0.00 | 0.00 | 0.00 | 43 | 1013.1 |
| 20260831151218 | 83 | 344 | 9.0 | 19.0 | 0.00 | 0.00 | 0.00 | 44 | 1013.2 |
| 20260831150728 | 83 | 319 | 10.0 | 19.0 | 0.00 | 0.00 | 0.00 | 44 | 1013.2 |
| 20260831145234 | 83 | 333 | 9.0 | 20.0 | 0.00 | 0.00 | 0.00 | 44 | 1013.4 |
| 20260831144716 | 83 | 335 | 8.0 | 14.0 | 0.00 | 0.00 | 0.00 | 44 | 1013.4 |
| 20260831144215 | 84 | 344 | 8.0 | 14.0 | 0.00 | 0.00 | 0.00 | 44 | 1013.5 |
| 20260831143719 | 84 | 341 | 8.0 | 16.0 | 0.00 | 0.00 | 0.00 | 43 | 1013.5 |
| 20260831143209 | 84 | 327 | 9.0 | 16.0 | 0.00 | 0.00 | 0.00 | 44 | 1013.5 |
| 20260831142231 | 83 | 319 | 8.0 | 15.0 | 0.00 | 0.00 | 0.00 | 45 | 1013.6 |
| 20260831141707 | 83 | 310 | 7.0 | 12.0 | 0.00 | 0.00 | 0.00 | 46 | 1013.6 |
| 20260831141207 | 82 | 298 | 5.0 | 12.0 | 0.00 | 0.00 | 0.00 | 47 | 1013.7 |
| 20260831140718 | 82 | 329 | 6.0 | 13.0 | 0.00 | 0.00 | 0.00 | 47 | 1013.7 |
| 20260831140218 | 82 | 324 | 7.0 | 13.0 | 0.00 | 0.00 | 0.00 | 46 | 1013.9 |
| 20260831135706 | 82 | 331 | 7.0 | 13.0 | 0.00 | 0.00 | 0.00 | 48 | 1013.9 |
| 20260831135211 | 81 | 57 | 8.0 | 16.0 | 0.00 | 0.00 | 0.00 | 48 | 1013.9 |
| 20260831133710 | 82 | 336 | 9.0 | 17.0 | 0.00 | 0.00 | 0.00 | 46 | 1013.9 |
| 20260831133212 | 82 | 338 | 8.0 | 14.0 | 0.00 | 0.00 | 0.00 | 46 | 1013.9 |
| 20260831132718 | 82 | 5 | 8.0 | 14.0 | 0.00 | 0.00 | 0.00 | 46 | 1013.9 |
| 20260831132235 | 82 | 328 | 9.0 | 14.0 | 0.00 | 0.00 | 0.00 | 46 | 1014.1 |
| 20260831131735 | 81 | 355 | 8.0 | 14.0 | 0.00 | 0.00 | 0.00 | 46 | 1014.1 |
| 20260831131212 | 81 | 325 | 7.0 | 14.0 | 0.00 | 0.00 | 0.00 | 46 | 1014.2 |
| 20260831130707 | 81 | 331 | 7.0 | 15.0 | 0.00 | 0.00 | 0.00 | 45 | 1014.2 |
| 20260831130205 | 81 | 337 | 8.0 | 15.0 | 0.00 | 0.00 | 0.00 | 44 | 1014.2 |
| 20260831125705 | 81 | 331 | 8.0 | 15.0 | 0.00 | 0.00 | 0.00 | 43 | 1014.2 |
| 20260831124720 | 82 | 325 | 9.0 | 16.0 | 0.00 | 0.00 | 0.00 | 43 | 1014.3 |
| 20260831124212 | 82 | 336 | 10.0 | 16.0 | 0.00 | 0.00 | 0.00 | 42 | 1014.3 |
| 20260831122738 | 83 | 26 | 10.0 | 19.0 | 0.00 | 0.00 | 0.00 | 41 | 1014.2 |
| 20260831122210 | 83 | 355 | 12.0 | 17.0 | 0.00 | 0.00 | 0.00 | 42 | 1014.2 |
| 20260831121716 | 83 | 301 | 11.0 | 18.0 | 0.00 | 0.00 | 0.00 | 41 | 1014.2 |
| 20260831121213 | 83 | 302 | 11.0 | 18.0 | 0.00 | 0.00 | 0.00 | 41 | 1014.3 |
| 20260831120216 | 83 | 316 | 11.0 | 19.0 | 0.00 | 0.00 | 0.00 | 41 | 1014.3 |
| 20260831115715 | 84 | 301 | 11.0 | 19.0 | 0.00 | 0.00 | 0.00 | 41 | 1014.3 |
| 20260831115210 | 84 | 340 | 11.0 | 17.0 | 0.00 | 0.00 | 0.00 | 39 | 1014.3 |
| 20260831114725 | 85 | 275 | 10.0 | 17.0 | 0.00 | 0.00 | 0.00 | 39 | 1014.3 |
| 20260831114210 | 86 | 319 | 10.0 | 19.0 | 0.00 | 0.00 | 0.00 | 39 | 1014.3 |
| 20260831113711 | 86 | 283 | 10.0 | 20.0 | 0.00 | 0.00 | 0.00 | 38 | 1014.3 |
| 20260831113208 | 86 | 300 | 12.0 | 22.0 | 0.00 | 0.00 | 0.00 | 40 | 1014.3 |
| 20260831112705 | 86 | 303 | 13.0 | 22.0 | 0.00 | 0.00 | 0.00 | 38 | 1014.2 |
| 20260831112207 | 86 | 309 | 13.0 | 21.0 | 0.00 | 0.00 | 0.00 | 37 | 1014.3 |
| 20260831111717 | 86 | 295 | 12.0 | 21.0 | 0.00 | 0.00 | 0.00 | 38 | 1014.2 |
| 20260831111218 | 86 | 283 | 12.0 | 21.0 | 0.00 | 0.00 | 0.00 | 38 | 1014.2 |
| 20260831105709 | 85 | 298 | 11.0 | 22.0 | 0.00 | 0.00 | 0.00 | 40 | 1013.9 |
| 20260831105217 | 85 | 296 | 10.0 | 19.0 | 0.00 | 0.00 | 0.00 | 43 | 1014.0 |
| 20260831104214 | 84 | 327 | 12.0 | 22.0 | 0.00 | 0.00 | 0.00 | 43 | 1013.9 |
| 20260831103709 | 84 | 344 | 13.0 | 22.0 | 0.00 | 0.00 | 0.00 | 42 | 1013.9 |
| 20260831103212 | 85 | 26 | 12.0 | 22.0 | 0.00 | 0.00 | 0.00 | 42 | 1013.7 |
| 20260831102718 | 85 | 340 | 11.0 | 20.0 | 0.00 | 0.00 | 0.00 | 42 | 1013.6 |
| 20260831102241 | 86 | 37 | 11.0 | 20.0 | 0.00 | 0.00 | 0.00 | 42 | 1013.5 |
| 20260831101717 | 86 | 5 | 11.0 | 14.0 | 0.00 | 0.00 | 0.00 | 43 | 1013.5 |
| 20260831101219 | 87 | 339 | 7.0 | 14.0 | 0.00 | 0.00 | 0.00 | 45 | 1013.5 |
| 20260831100717 | 86 | 26 | 7.0 | 13.0 | 0.00 | 0.00 | 0.00 | 44 | 1013.5 |
| 20260831100206 | 86 | 329 | 7.0 | 15.0 | 0.00 | 0.00 | 0.00 | 44 | 1013.4 |
| 20260831095708 | 86 | 340 | 8.0 | 17.0 | 0.00 | 0.00 | 0.00 | 43 | 1013.5 |
| 20260831095214 | 85 | 295 | 9.0 | 17.0 | 0.00 | 0.00 | 0.00 | 44 | 1013.5 |
| 20260831094717 | 85 | 252 | 10.0 | 17.0 | 0.00 | 0.00 | 0.00 | 44 | 1013.5 |
| 20260831094206 | 85 | 255 | 8.0 | 17.0 | 0.00 | 0.00 | 0.00 | 45 | 1013.6 |
| 20260831093737 | 84 | 242 | 4.0 | 11.0 | 0.00 | 0.00 | 0.00 | 48 | 1013.7 |
| 20260831093220 | 84 | 219 | 4.0 | 11.0 | 0.00 | 0.00 | 0.00 | 47 | 1013.7 |
| 20260831092718 | 83 | 339 | 3.0 | 8.0 | 0.00 | 0.00 | 0.00 | 48 | 1013.7 |
| 20260831092206 | 83 | 54 | 2.0 | 8.0 | 0.00 | 0.00 | 0.00 | 50 | 1013.9 |
| 20260831091724 | 83 | 348 | 2.0 | 8.0 | 0.00 | 0.00 | 0.00 | 49 | 1013.9 |
| 20260831091006 | 82 | 57 | 4.0 | 9.0 | 0.00 | 0.00 | 0.00 | 51 | 1014.1 |
| 20260831090218 | 81 | 318 | 5.0 | 9.0 | 0.00 | 0.00 | 0.00 | 53 | 1014.2 |
| 20260831085705 | 80 | 64 | 4.0 | 8.0 | 0.00 | 0.00 | 0.00 | 53 | 1014.2 |
| 20260831085208 | 80 | 51 | 3.0 | 8.0 | 0.00 | 0.00 | 0.00 | 55 | 1014.2 |
| 20260831084714 | 79 | 355 | 4.0 | 8.0 | 0.00 | 0.00 | 0.00 | 54 | 1014.2 |
| 20260831084217 | 79 | 44 | 4.0 | 8.0 | 0.00 | 0.00 | 0.00 | 55 | 1014.1 |
| 20260831083713 | 79 | 345 | 3.0 | 6.0 | 0.00 | 0.00 | 0.00 | 57 | 1014.1 |
| 20260831083218 | 78 | 19 | 2.0 | 7.0 | 0.00 | 0.00 | 0.00 | 55 | 1013.9 |
| 20260831082708 | 78 | 53 | 3.0 | 7.0 | 0.00 | 0.00 | 0.00 | 55 | 1014.0 |
| 20260831082213 | 78 | 14 | 4.0 | 7.0 | 0.00 | 0.00 | 0.00 | 55 | 1014.0 |
| 20260831081705 | 78 | 32 | 4.0 | 6.0 | 0.00 | 0.00 | 0.00 | 55 | 1013.9 |
| 20260831080709 | 78 | 25 | 2.0 | 7.0 | 0.00 | 0.00 | 0.00 | 55 | 1013.6 |
| 20260831080219 | 78 | 51 | 3.0 | 7.0 | 0.00 | 0.00 | 0.00 | 55 | 1013.5 |
| 20260831074711 | 77 | 78 | 2.0 | 6.0 | 0.00 | 0.00 | 0.00 | 56 | 1013.4 |
| 20260831074219 | 77 | 65 | 3.0 | 6.0 | 0.00 | 0.00 | 0.00 | 56 | 1013.4 |
| 20260831073712 | 77 | 27 | 3.0 | 6.0 | 0.00 | 0.00 | 0.00 | 57 | 1013.4 |
| 20260831073212 | 76 | 355 | 3.0 | 6.0 | 0.00 | 0.00 | 0.00 | 57 | 1013.4 |
| 20260831072717 | 76 | 38 | 4.0 | 6.0 | 0.00 | 0.00 | 0.00 | 57 | 1013.4 |
| 20260831072209 | 76 | 71 | 3.0 | 6.0 | 0.00 | 0.00 | 0.00 | 58 | 1013.4 |
| 20260831071709 | 76 | 63 | 3.0 | 7.0 | 0.00 | 0.00 | 0.00 | 60 | 1013.4 |
| 20260831071210 | 75 | 84 | 3.0 | 8.0 | 0.00 | 0.00 | 0.00 | 60 | 1013.4 |
| 20260831070706 | 74 | 46 | 4.0 | 8.0 | 0.00 | 0.00 | 0.00 | 61 | 1013.4 |
| 20260831070208 | 74 | 348 | 4.0 | 8.0 | 0.00 | 0.00 | 0.00 | 61 | 1013.3 |
| 20260831065709 | 73 | 25 | 4.0 | 8.0 | 0.00 | 0.00 | 0.00 | 64 | 1013.3 |
| 20260831065207 | 72 | 345 | 3.0 | 8.0 | 0.00 | 0.00 | 0.00 | 64 | 1013.3 |
| 20260831064707 | 71 | 13 | 3.0 | 8.0 | 0.00 | 0.00 | 0.00 | 66 | 1013.3 |
| 20260831064211 | 71 | 24 | 4.0 | 7.0 | 0.00 | 0.00 | 0.00 | 67 | 1013.3 |
| 20260831063713 | 70 | 338 | 4.0 | 7.0 | 0.00 | 0.00 | 0.00 | 67 | 1013.2 |
| 20260831063215 | 69 | 329 | 3.0 | 4.0 | 0.00 | 0.00 | 0.00 | 69 | 1013.2 |
| 20260831062719 | 69 | 25 | 2.0 | 4.0 | 0.00 | 0.00 | 0.00 | 71 | 1013.1 |
| 20260831062212 | 68 | 38 | 1.0 | 4.0 | 0.00 | 0.00 | 0.00 | 71 | 1013.0 |
| 20260831061709 | 67 | 5 | 1.0 | 3.0 | 0.00 | 0.00 | 0.00 | 71 | 1013.1 |
| 20260831061207 | 67 | 266 | 1.0 | 3.0 | 0.00 | 0.00 | 0.00 | 72 | 1013.0 |
| 20260831060719 | 67 | 266 | 2.0 | 4.0 | 0.00 | 0.00 | 0.00 | 73 | 1013.1 |
| 20260831060207 | 66 | 249 | 2.0 | 4.0 | 0.00 | 0.00 | 0.00 | 74 | 1013.0 |
| 20260831055732 | 65 | 209 | 1.0 | 4.0 | 0.00 | 0.00 | 0.00 | 75 | 1012.9 |
| 20260831055210 | 65 | 165 | 1.0 | 2.0 | 0.00 | 0.00 | 0.00 | 76 | 1012.9 |
| 20260831054242 | 64 | 290 | 0.0 | 2.0 | 0.00 | 0.00 | 0.00 | 76 | 1012.9 |
| 20260831053718 | 64 | 290 | 0.0 | 5.0 | 0.00 | 0.00 | 0.00 | 76 | 1012.9 |
| 20260831053214 | 64 | 290 | 2.0 | 5.0 | 0.00 | 0.00 | 0.00 | 78 | 1012.9 |
| 20260831052736 | 63 | 288 | 2.0 | 5.0 | 0.00 | 0.00 | 0.00 | 78 | 1012.9 |
| 20260831052214 | 63 | 261 | 2.0 | 4.0 | 0.00 | 0.00 | 0.00 | 79 | 1012.9 |
| 20260831051214 | 62 | 271 | 0.0 | 3.0 | 0.00 | 0.00 | 0.00 | 78 | 1012.7 |
| 20260831050707 | 62 | 271 | 1.0 | 4.0 | 0.00 | 0.00 | 0.00 | 79 | 1012.8 |
| 20260831045712 | 62 | 271 | 2.0 | 4.0 | 0.00 | 0.00 | 0.00 | 79 | 1012.9 |
| 20260831045213 | 62 | 268 | 0.0 | 2.0 | 0.00 | 0.00 | 0.00 | 78 | 1012.8 |
| 20260831044729 | 62 | 318 | 0.0 | 2.0 | 0.00 | 0.00 | 0.00 | 78 | 1012.8 |
| 20260831043706 | 61 | 319 | 1.0 | 3.0 | 0.00 | 0.00 | 0.00 | 78 | 1012.8 |
| 20260831043216 | 61 | 313 | 1.0 | 5.0 | 0.00 | 0.00 | 0.00 | 78 | 1012.8 |
| 20260831042216 | 61 | 255 | 3.0 | 5.0 | 0.00 | 0.00 | 0.00 | 79 | 1012.8 |
| 20260831041719 | 61 | 254 | 3.0 | 6.0 | 0.00 | 0.00 | 0.00 | 79 | 1012.7 |
| 20260831040743 | 61 | 252 | 4.0 | 6.0 | 0.00 | 0.00 | 0.00 | 79 | 1012.6 |
| 20260831040212 | 61 | 256 | 3.0 | 6.0 | 0.00 | 0.00 | 0.00 | 79 | 1012.6 |
| 20260831034216 | 61 | 263 | 3.0 | 4.0 | 0.00 | 0.00 | 0.00 | 78 | 1012.4 |
| 20260831033205 | 61 | 250 | 3.0 | 4.0 | 0.00 | 0.00 | 0.00 | 77 | 1012.5 |
| 20260831032719 | 61 | 267 | 3.0 | 4.0 | 0.00 | 0.00 | 0.00 | 77 | 1012.5 |
| 20260831032219 | 61 | 267 | 3.0 | 2.0 | 0.00 | 0.00 | 0.00 | 77 | 1012.5 |
| 20260831031212 | 62 | 278 | 0.0 | 3.0 | 0.00 | 0.00 | 0.00 | 76 | 1012.5 |
| 20260831030714 | 62 | 278 | 0.0 | 3.0 | 0.00 | 0.00 | 0.00 | 76 | 1012.6 |
| 20260831030209 | 62 | 278 | 1.0 | 3.0 | 0.00 | 0.00 | 0.00 | 76 | 1012.6 |
| 20260831025716 | 62 | 278 | 2.0 | 3.0 | 0.00 | 0.00 | 0.00 | 76 | 1012.6 |
| 20260831024718 | 62 | 303 | 1.0 | 3.0 | 0.00 | 0.00 | 0.00 | 76 | 1012.6 |
| 20260831024233 | 62 | 303 | 1.0 | 3.0 | 0.00 | 0.00 | 0.00 | 75 | 1012.6 |
| 20260831023213 | 62 | 309 | 1.0 | 2.0 | 0.00 | 0.00 | 0.00 | 75 | 1012.6 |
| 20260831022717 | 62 | 309 | 2.0 | 2.0 | 0.00 | 0.00 | 0.00 | 75 | 1012.7 |
| 20260831022215 | 63 | 276 | 2.0 | 3.0 | 0.00 | 0.00 | 0.00 | 75 | 1012.8 |
| 20260831021717 | 63 | 290 | 2.0 | 4.0 | 0.00 | 0.00 | 0.00 | 75 | 1012.8 |
| 20260831021209 | 63 | 282 | 2.0 | 4.0 | 0.00 | 0.00 | 0.00 | 75 | 1012.9 |
| 20260831020216 | 63 | 271 | 2.0 | 4.0 | 0.00 | 0.00 | 0.00 | 74 | 1012.8 |
| 20260831015706 | 63 | 262 | 2.0 | 4.0 | 0.00 | 0.00 | 0.00 | 74 | 1012.8 |
| 20260831015207 | 63 | 254 | 2.0 | 4.0 | 0.00 | 0.00 | 0.00 | 74 | 1012.8 |
| 20260831014713 | 63 | 262 | 2.0 | 4.0 | 0.00 | 0.00 | 0.00 | 74 | 1012.8 |
| 20260831014210 | 63 | 245 | 3.0 | 4.0 | 0.00 | 0.00 | 0.00 | 74 | 1012.9 |
| 20260831013709 | 63 | 239 | 2.0 | 4.0 | 0.00 | 0.00 | 0.00 | 74 | 1012.9 |
| 20260831013218 | 63 | 233 | 1.0 | 3.0 | 0.00 | 0.00 | 0.00 | 74 | 1013.0 |
| 20260831011710 | 64 | 237 | 3.0 | 6.0 | 0.00 | 0.00 | 0.00 | 74 | 1012.9 |
| 20260831011210 | 64 | 249 | 3.0 | 6.0 | 0.00 | 0.00 | 0.00 | 74 | 1012.9 |
| 20260831010710 | 64 | 265 | 3.0 | 7.0 | 0.00 | 0.00 | 0.00 | 74 | 1012.9 |
| 20260831004705 | 64 | 261 | 4.0 | 7.0 | 0.00 | 0.00 | 0.00 | 73 | 1013.1 |
| 20260831004205 | 64 | 276 | 4.0 | 6.0 | 0.00 | 0.00 | 0.00 | 73 | 1013.1 |
| 20260831003708 | 65 | 267 | 4.0 | 6.0 | 0.00 | 0.00 | 0.00 | 72 | 1013.1 |
| 20260831002721 | 65 | 254 | 3.0 | 6.0 | 0.00 | 0.00 | 0.00 | 70 | 1013.2 |
| 20260831002217 | 65 | 261 | 3.0 | 4.0 | 0.00 | 0.00 | 0.00 | 70 | 1013.3 |
| 20260831001709 | 66 | 243 | 2.0 | 4.0 | 0.00 | 0.00 | 0.00 | 70 | 1013.3 |
| 20260831001235 | 66 | 246 | 1.0 | 2.0 | 0.00 | 0.00 | 0.00 | 70 | 1013.3 |
| 20260831000715 | 66 | 261 | 1.0 | 2.0 | 0.00 | 0.00 | 0.00 | 69 | 1013.3 |
| 20260831000244 | 67 | 261 | 0.0 | 2.0 | 0.00 | 0.00 | 0.00 | 69 | 1013.3 |
| 20260830235708 | 67 | 261 | 1.0 | 2.0 | 0.00 | 0.00 | 0.00 | 68 | 1013.3 |
| 20260830235210 | 67 | 261 | 1.0 | 2.0 | 0.00 | 0.00 | 0.00 | 67 | 1013.3 |
| 20260830234707 | 67 | 261 | 0.0 | 2.0 | 0.00 | 0.00 | 0.00 | 68 | 1013.4 |
| 20260830234209 | 67 | 261 | 0.0 | 2.0 | 0.00 | 0.00 | 0.00 | 68 | 1013.4 |
| 20260830233715 | 67 | 261 | 0.0 | 1.0 | 0.00 | 0.00 | 0.00 | 67 | 1013.4 |
| 20260830233210 | 67 | 261 | 0.0 | 2.0 | 0.00 | 0.00 | 0.00 | 67 | 1013.4 |
| 20260830232706 | 67 | 261 | 0.0 | 2.0 | 0.00 | 0.00 | 0.00 | 66 | 1013.4 |
| 20260830232208 | 67 | 261 | 0.0 | 2.0 | 0.00 | 0.00 | 0.00 | 66 | 1013.4 |
| 20260830231711 | 67 | 261 | 0.0 | 2.0 | 0.00 | 0.00 | 0.00 | 66 | 1013.4 |
| 20260830231213 | 67 | 261 | 1.0 | 3.0 | 0.00 | 0.00 | 0.00 | 66 | 1013.3 |
| 20260830230218 | 68 | 259 | 2.0 | 3.0 | 0.00 | 0.00 | 0.00 | 66 | 1013.4 |
| 20260830225713 | 68 | 267 | 2.0 | 3.0 | 0.00 | 0.00 | 0.00 | 66 | 1013.5 |
| 20260830225213 | 68 | 277 | 2.0 | 3.0 | 0.00 | 0.00 | 0.00 | 66 | 1013.5 |
| 20260830224206 | 68 | 266 | 2.0 | 3.0 | 0.00 | 0.00 | 0.00 | 65 | 1013.6 |
| 20260830223707 | 68 | 266 | 2.0 | 3.0 | 0.00 | 0.00 | 0.00 | 65 | 1013.7 |
| 20260830223213 | 68 | 275 | 2.0 | 4.0 | 0.00 | 0.00 | 0.00 | 65 | 1013.6 |
| 20260830222706 | 68 | 250 | 2.0 | 4.0 | 0.00 | 0.00 | 0.00 | 64 | 1013.6 |
| 20260830222219 | 68 | 250 | 3.0 | 5.0 | 0.00 | 0.00 | 0.00 | 65 | 1013.6 |
| 20260830221716 | 68 | 254 | 3.0 | 7.0 | 0.00 | 0.00 | 0.00 | 65 | 1013.6 |
| 20260830221218 | 68 | 273 | 3.0 | 7.0 | 0.00 | 0.00 | 0.00 | 65 | 1013.7 |
| 20260830220210 | 69 | 270 | 4.0 | 6.0 | 0.00 | 0.00 | 0.00 | 64 | 1013.6 |
| 20260830215720 | 69 | 249 | 3.0 | 5.0 | 0.00 | 0.00 | 0.00 | 65 | 1013.6 |
| 20260830214715 | 69 | 254 | 3.0 | 4.0 | 0.00 | 0.00 | 0.00 | 64 | 1013.7 |
| 20260830214219 | 69 | 235 | 2.0 | 7.0 | 0.00 | 0.00 | 0.00 | 64 | 1013.7 |
| 20260830213718 | 69 | 243 | 3.0 | 7.0 | 0.00 | 0.00 | 0.00 | 64 | 1013.7 |
| 20260830213218 | 69 | 249 | 4.0 | 7.0 | 0.00 | 0.00 | 0.00 | 64 | 1013.7 |
| 20260830212709 | 69 | 256 | 4.0 | 7.0 | 0.00 | 0.00 | 0.00 | 64 | 1013.9 |
| 20260830211213 | 69 | 257 | 2.0 | 4.0 | 0.00 | 0.00 | 0.00 | 63 | 1013.7 |
| 20260830210708 | 69 | 244 | 2.0 | 4.0 | 0.00 | 0.00 | 0.00 | 63 | 1013.7 |
| 20260830210220 | 70 | 245 | 2.0 | 4.0 | 0.00 | 0.00 | 0.00 | 62 | 1013.7 |
| 20260830205711 | 70 | 265 | 2.0 | 3.0 | 0.00 | 0.00 | 0.00 | 61 | 1013.7 |
| 20260830204705 | 70 | 265 | 1.0 | 2.0 | 0.00 | 0.00 | 0.00 | 61 | 1013.7 |
| 20260830203706 | 71 | 286 | 1.0 | 2.0 | 0.00 | 0.00 | 0.00 | 60 | 1013.6 |
| 20260830203206 | 71 | 286 | 1.0 | 4.0 | 0.00 | 0.00 | 0.00 | 60 | 1013.6 |
| 20260830200707 | 73 | 263 | 2.0 | 4.0 | 0.00 | 0.00 | 0.00 | 57 | 1013.6 |
| 20260830200215 | 73 | 271 | 3.0 | 4.0 | 0.00 | 0.00 | 0.00 | 57 | 1013.6 |
| 20260830195210 | 73 | 263 | 2.0 | 4.0 | 0.00 | 0.00 | 0.00 | 57 | 1013.5 |
| 20260830194710 | 73 | 262 | 3.0 | 4.0 | 0.00 | 0.00 | 0.00 | 57 | 1013.6 |
| 20260830194207 | 73 | 223 | 3.0 | 5.0 | 0.00 | 0.00 | 0.00 | 56 | 1013.5 |
| 20260830193207 | 74 | 216 | 2.0 | 5.0 | 0.00 | 0.00 | 0.00 | 55 | 1013.5 |
| 20260830192715 | 74 | 186 | 2.0 | 5.0 | 0.00 | 0.00 | 0.00 | 55 | 1013.5 |
| 20260830192215 | 74 | 178 | 3.0 | 4.0 | 0.00 | 0.00 | 0.00 | 54 | 1013.4 |
| 20260830191709 | 74 | 239 | 2.0 | 4.0 | 0.00 | 0.00 | 0.00 | 54 | 1013.5 |
| 20260830191206 | 75 | 227 | 1.0 | 4.0 | 0.00 | 0.00 | 0.00 | 53 | 1013.4 |
| 20260830190710 | 75 | 168 | 1.0 | 4.0 | 0.00 | 0.00 | 0.00 | 52 | 1013.5 |
| 20260830190216 | 76 | 140 | 1.0 | 3.0 | 0.00 | 0.00 | 0.00 | 52 | 1013.5 |
| 20260830185217 | 77 | 262 | 2.0 | 3.0 | 0.00 | 0.00 | 0.00 | 51 | 1013.5 |
| 20260830183713 | 78 | 71 | 1.0 | 2.0 | 0.00 | 0.00 | 0.00 | 50 | 1013.5 |
| 20260830183207 | 78 | 71 | 1.0 | 3.0 | 0.00 | 0.00 | 0.00 | 49 | 1013.4 |
| 20260830182712 | 79 | 71 | 2.0 | 3.0 | 0.00 | 0.00 | 0.00 | 48 | 1013.3 |
| 20260830182220 | 79 | 71 | 2.0 | 3.0 | 0.00 | 0.00 | 0.00 | 48 | 1013.2 |
| 20260830181713 | 80 | 71 | 2.0 | 3.0 | 0.00 | 0.00 | 0.00 | 47 | 1013.2 |
| 20260830181219 | 80 | 71 | 2.0 | 3.0 | 0.00 | 0.00 | 0.00 | 46 | 1013.1 |
| 20260830180716 | 81 | 71 | 2.0 | 3.0 | 0.00 | 0.00 | 0.00 | 46 | 1013.1 |
| 20260830180216 | 81 | 71 | 2.0 | 3.0 | 0.00 | 0.00 | 0.00 | 45 | 1013.1 |
| 20260830175711 | 81 | 70 | 2.0 | 3.0 | 0.00 | 0.00 | 0.00 | 45 | 1013.1 |
| 20260830175217 | 81 | 88 | 2.0 | 7.0 | 0.00 | 0.00 | 0.00 | 44 | 1013.0 |
| 20260830174710 | 82 | 98 | 3.0 | 7.0 | 0.00 | 0.00 | 0.00 | 43 | 1013.0 |
| 20260830174218 | 82 | 103 | 3.0 | 7.0 | 0.00 | 0.00 | 0.00 | 43 | 1012.9 |
| 20260830173705 | 82 | 114 | 3.0 | 7.0 | 0.00 | 0.00 | 0.00 | 43 | 1012.9 |
| 20260830172709 | 83 | 82 | 4.0 | 8.0 | 0.00 | 0.00 | 0.00 | 42 | 1012.8 |
| 20260830172212 | 83 | 105 | 4.0 | 8.0 | 0.00 | 0.00 | 0.00 | 42 | 1012.8 |
| 20260830171713 | 83 | 107 | 4.0 | 9.0 | 0.00 | 0.00 | 0.00 | 42 | 1012.8 |
| 20260830171215 | 83 | 101 | 5.0 | 9.0 | 0.00 | 0.00 | 0.00 | 42 | 1012.8 |
| 20260830170718 | 84 | 107 | 5.0 | 9.0 | 0.00 | 0.00 | 0.00 | 41 | 1012.7 |
| 20260830170208 | 84 | 120 | 5.0 | 9.0 | 0.00 | 0.00 | 0.00 | 41 | 1012.7 |
| 20260830165719 | 84 | 76 | 6.0 | 9.0 | 0.00 | 0.00 | 0.00 | 41 | 1012.7 |
| 20260830165207 | 85 | 82 | 5.0 | 10.0 | 0.00 | 0.00 | 0.00 | 40 | 1012.7 |
| 20260830164713 | 85 | 81 | 6.0 | 10.0 | 0.00 | 0.00 | 0.00 | 40 | 1012.7 |
| 20260830164205 | 85 | 169 | 6.0 | 10.0 | 0.00 | 0.00 | 0.00 | 40 | 1012.7 |
| 20260830163710 | 85 | 110 | 6.0 | 11.0 | 0.00 | 0.00 | 0.00 | 40 | 1012.7 |
| 20260830162707 | 85 | 103 | 8.0 | 12.0 | 0.00 | 0.00 | 0.00 | 39 | 1012.8 |
| 20260830162218 | 85 | 146 | 8.0 | 12.0 | 0.00 | 0.00 | 0.00 | 39 | 1012.8 |